Showing default

FLOCK 4BE 33, 60502

Orbit data source: Space-Track

FLOCK 4BE 33, 60502 is a payload satellite owned by Planet (US) in SSO that was launched on Fri, 16 Aug 2024 UTC via an FALCON 9 launch vehicle from the Air Force Western Test Range (AFWTR). Payloads include a variety of satellites, spacecraft, and rockets equipped with specific instruments for various scientific and technological missions. These include communications satellites like Starlink; space stations such as the ISS; scientific satellites like the Hubble; Earth observation satellites from companies like Planet Labs, Umbra, and HawkEye 360; GPS; miniature CubeSats for education and research; and military/defense satellites.

Loading next visibility...
FLOCK 4BE 33 details
Identifier
60502, 2024-149AL
Orbit
SSO
Last TLE update20 hours ago
Origin
Flag of USPlanet (US)
ManufacturerPlanet
MissionOperational spacecraft
Bus & MotorCUBESAT 3U, Unknown motor
Mass5.7 kg wet, 5.7 kg dry
Launch date (UTC)
2024-08-16 (4 months ago)
Launch vehicle
FALCON 9
Launch site
Air Force Western Test Range (AFWTR)
Object type
Payload
Rocket body
Debris
Shape & HBRUnknown
Radar Cross SectionMedium (>0.1 m² and <1 m²)

Expand to show TLE details & history

TLE from 20 hours ago
0 FLOCK 4BE 33
1 60502U 24149AL  24355.76597116  .00012865  00000-0  56173-3 0  9991
2 60502  97.4263  69.4972 0006286  63.0572 297.1306 15.22241440 19135
Epoch: 2024-12-20T18:22Z
Definitive object data (Epoch: 2024-12-20T18:22:59.908Z)
Latitude0.00001°
Longitude63.9208°
Altitude500.204 km
Speed7.615 km/s
True Right ascension04h 37m 59s
True Declination0° 00' 00"
Sunlit
Object was in full shadow at TLE epoch
Visualization TLE readout
Latitude-72.90962°
Longitude-140.19096°
Altitude530.057 km
Speed7.594 km/s
Apparent Right ascension00h 28m 03s
Apparent Declination-73° 35' 30"
Sunlit
Object is in daylight
Visualization observer readout
Local Sidereal Time13:27:51
Azimuth172.594° S
Elevation-55.574°
Doppler factor1
Orbital elements
Apogee altitude500.366 km
Perigee altitude491.724 km
Semi-major axis6,874.182 km
Eccentricity0.0006286
Inclination97.4263°
RAAN69.4972°
Arg. of periapsis63.0572°
True anomaly297.06647°
Mean anomaly297.1306°
Eccentric anomaly297.09854°
Mean motion3.80813 °/min
BSTAR0.00056173
Orbital period94.53 mins
Loading maneuver chart data...
Loading historical data...
Loading historical data...
Loading historical data...
Loading historical data...
Loading historical data...
Loading historical data...
Loading historical data...

FLOCK 4BE 33 Visibility forecast

Observer location: undefined°, undefined

Span
Click to sort rows by Start time (UTC) header in descending order
Start Az.
Max El. time (UTC)
Max El. Az.
Max El.
End time (UTC)
End Az.
4 mins2024-12-21 18:37:44.198Z325.815° NNW2024-12-21 18:38:44.198Z298.55° NW26.311°2024-12-21 18:41:44.198Z230.445° WSW
5 mins2024-12-22 05:13:44.198Z169.674° S2024-12-22 05:15:44.198Z187.312° SSW44.155°2024-12-22 05:18:44.198Z346.418° N
|